Vertical_Velocity
-1 -1 -0 -0 -1 -1 -1 -0 1 -1 -0 -1 -1 0 -0 -1 1 1 -2 1 -0 -0 1 1 0 0 -0 0 0 1 0 -1 -1
-0 -1 -1 -1 -0 -0 -1 -0 1 1 -1 -0 0 -1 -0 1 -0 0 -1 -2 2 0 -0 1 2 1 0 -0 -0 0 0 1 0
0 1 0 -1 -2 -1 -1 -1 1 0 1 -0 -2 0 0 -0 1 0 1 -1 -2 -0 0 -0 0 1 2 1 0 -1 -0 0 0
2 1 2 1 -0 -1 -1 -1 0 -1 0 -1 1 0 -0 1 0 2 1 -1 0 -0 1 0 0 0 -0 0 1 0 -1 -1 -1
-2 -2 -2 0 2 -0 1 -0 -1 2 0 -1 2 1 -0 3 -1 0 2 2 0 -0 -1 0 0 -0 -0 -0 -0 1 0 -0 -1
-1 -1 -1 -2 -2 -1 0 -1 -1 -1 -2 2 1 2 2 0 -0 2 -0 0 1 2 0 -1 -1 -0 -0 -0 -1 -1 -0 1 1
-1 -2 -1 -1 -2 -0 -1 -1 -1 -2 1 -0 -2 -1 2 2 -2 1 0 1 1 1 1 -0 0 -0 0 -0 -1 -1 -1 -0 0
0 -1 0 2 1 0 -2 -1 -2 -2 -3 -1 0 0 -1 4 3 3 1 2 1 0 1 2 1 -0 -0 1 0 -1 -1 -0 0
1 -2 -5 -3 -1 -1 -1 -0 -1 -2 -2 -0 -1 -1 -1 2 2 4 2 1 3 -1 -2 4 1 2 0 0 -0 0 -0 -1 -0
-0 -1 -2 0 -2 2 -2 -2 -0 -1 -3 -2 -3 1 0 0 2 4 2 4 -0 1 0 2 1 0 1 1 1 1 -0 -1 -1
-1 1 0 -2 -2 -4 -0 -1 -1 2 4 5 -1 4 0 -1 3 3 4 4 2 1 2 2 2 2 -1 0 1 1 1 -1 -1
-1 -2 -2 -1 -0 -1 -2 -2 -4 -0 -3 0 8 4 10 7 -0 4 4 7 4 2 3 1 0 1 1 -2 -1 -1 -0 0 0
-1 -0 -1 0 -1 -0 -3 -2 -1 -2 -12 -5 5 4 6 9 7 2 1 1 2 4 -1 -0 -2 2 0 -2 -1 -2 -2 -0 1
-2 0 -1 -2 -2 -2 -1 -5 -3 -0 -4 1 2 4 3 8 4 7 0 -1 -0 3 -2 -3 0 -3 12 -2 14 -4 0 1 0
-1 -2 -2 -3 -3 -2 -7 -3 -10 -4 -0 3 -1 4 1 -0 3 7 2 -7 4 99 4 19 13 -5 -4 21 -2 -1 1 6 1
-1 -3 -3 -2 0 -2 1 -5 4 -4 -6 -5 -4 -1 2 0 2 1 3 -0 2 12 19 38 57 32 4 1 1 2 3 1 3
-1 -4 -2 -2 -4 -4 -4 -3 -3 -1 -5 -10 -2 -2 3 2 1 -1 0 -5 -3 -0 -3 2 32 42 3 3 -2 -8 -3 -1 -0
-2 -1 -2 -2 -1 0 -1 -2 -2 -1 -1 -4 -1 -0 -3 -2 -0 1 -4 -4 -7 -12 -3 -8 -2 10 10 3 19 16 2 18 4
-1 1 -1 -1 -1 0 -2 -3 -1 -1 -2 -4 -5 -3 -0 -2 -3 -7 -10 -4 -3 -7 -4 -4 -6 -1 -2 -2 -7 -1 0 6 -9
-3 -2 -2 -1 -1 0 1 -3 -4 3 2 -1 -3 -6 -5 -5 -4 -15 -10 -10 -8 -2 -4 -2 -5 0 -13 -0 -5 1 -1 5 -1
Height
5850 5849 5847 5846 5844 5843 5842 5841 5839 5838 5838 5838 5838 5838 5838 5838 5838 5838 5838 5840 5840 5840 5841 5841 5841 5842 5842 5843 5844 5845 5845 5846 5847
5845 5844 5843 5841 5839 5838 5836 5835 5834 5832 5831 5831 5831 5832 5832 5832 5833 5833 5833 5832 5834 5835 5835 5836 5836 5837 5837 5838 5839 5840 5841 5842 5843
5839 5838 5836 5834 5832 5831 5830 5828 5827 5826 5825 5825 5824 5823 5824 5825 5826 5826 5827 5826 5827 5828 5829 5830 5831 5832 5832 5833 5834 5835 5836 5837 5838
5831 5830 5828 5827 5825 5823 5822 5821 5819 5818 5818 5816 5816 5816 5816 5816 5817 5819 5820 5820 5820 5821 5822 5823 5824 5825 5827 5828 5828 5829 5830 5831 5832
5824 5822 5820 5817 5815 5813 5811 5810 5809 5808 5808 5807 5807 5807 5807 5808 5808 5809 5811 5811 5813 5814 5815 5816 5818 5819 5820 5822 5823 5824 5825 5826 5827
5815 5813 5811 5808 5806 5804 5802 5800 5798 5797 5797 5796 5796 5796 5796 5798 5798 5798 5800 5801 5803 5806 5807 5809 5810 5812 5814 5815 5817 5818 5820 5821 5822
5807 5804 5803 5801 5798 5795 5793 5791 5789 5787 5786 5785 5784 5784 5784 5786 5787 5788 5789 5791 5793 5796 5798 5800 5803 5805 5806 5808 5810 5812 5814 5815 5816
5800 5798 5796 5794 5791 5789 5786 5783 5780 5778 5776 5774 5772 5771 5770 5773 5774 5777 5778 5780 5782 5784 5789 5791 5794 5796 5799 5801 5803 5805 5807 5809 5810
5795 5792 5790 5787 5784 5781 5779 5776 5772 5768 5764 5761 5759 5758 5757 5757 5760 5763 5765 5767 5771 5774 5777 5781 5784 5788 5790 5793 5795 5797 5799 5801 5803
5789 5787 5785 5781 5777 5775 5771 5767 5762 5757 5751 5746 5742 5741 5740 5740 5742 5746 5750 5753 5758 5763 5766 5770 5775 5779 5782 5784 5787 5789 5791 5793 5795
5786 5783 5780 5776 5773 5768 5764 5758 5751 5744 5737 5728 5720 5717 5718 5721 5724 5729 5734 5739 5744 5751 5756 5759 5764 5769 5773 5775 5778 5781 5783 5784 5786
5782 5779 5776 5772 5767 5763 5756 5747 5738 5727 5715 5701 5689 5686 5690 5697 5704 5711 5718 5724 5731 5738 5745 5749 5754 5758 5762 5766 5769 5771 5774 5776 5778
5778 5775 5771 5767 5761 5755 5747 5735 5722 5707 5688 5672 5661 5657 5663 5672 5682 5693 5704 5712 5721 5728 5735 5740 5744 5749 5752 5756 5759 5762 5764 5766 5769
5773 5771 5766 5761 5754 5745 5735 5722 5705 5686 5664 5647 5638 5635 5639 5648 5661 5677 5690 5702 5710 5717 5728 5733 5735 5741 5744 5747 5749 5752 5755 5757 5760
5769 5765 5760 5754 5746 5736 5725 5710 5691 5669 5648 5624 5614 5614 5622 5629 5645 5662 5678 5691 5694 5694 5713 5717 5721 5732 5735 5735 5740 5743 5744 5748 5750
5764 5759 5754 5747 5739 5730 5718 5703 5683 5659 5636 5612 5605 5600 5608 5618 5632 5649 5665 5681 5688 5692 5695 5698 5705 5713 5721 5726 5729 5731 5734 5737 5740
5759 5754 5748 5742 5733 5724 5713 5699 5680 5657 5635 5615 5601 5596 5604 5612 5624 5641 5658 5670 5683 5689 5691 5695 5696 5701 5710 5715 5717 5719 5723 5727 5730
5754 5749 5743 5736 5728 5720 5709 5696 5680 5660 5640 5622 5610 5605 5607 5614 5624 5639 5653 5667 5677 5685 5691 5696 5696 5699 5703 5707 5705 5709 5714 5718 5719
5748 5743 5738 5731 5723 5715 5706 5695 5681 5665 5648 5632 5621 5613 5614 5619 5630 5642 5656 5670 5677 5684 5688 5691 5692 5693 5692 5695 5698 5700 5703 5706 5708
5742 5737 5732 5726 5719 5711 5703 5694 5683 5671 5657 5643 5633 5627 5625 5627 5636 5650 5664 5671 5676 5681 5685 5688 5689 5688 5691 5690 5691 5691 5692 5697 5698